Location: Escondido Hill
(38.9119°N, 104.7815°W)
Time: 20:10:00
(UTC-07:00)

N. Korean satellite - Pass Details

Date: 25 October 2019
Orbit: 456 x 506 km, 97.2° (Epoch: 21 November)

Event Time Altitude Azimuth Distance (km) Brightness Sun altitude
Rises 06:06:54 0° 27° (NNE) 2,577 10.6 -14.6°
Reaches altitude 10° 06:09:20 10° 43° (NE) 1,698 9.9 -14.1°
Maximum altitude 06:12:12 22° 95° (E) 1,147 9.5 -13.6°
Drops below altitude 10° 06:15:04 10° 147° (SSE) 1,702 9.9 -13.0°
Sets 06:17:31 0° 163° (SSE) 2,585 10.6 -12.5°
